OE3CJB-13 Weather Reports


Display with metric or nautical units.
time (UTC)temp
F
wind
direction
speed
MPH
gust
MPH
rain 1hr
in
rain 24hr
in
rain mn
in
humidity
%
barometer
mb
20260507060046 59 0.0 0.0 0.00 0.00 0.00 49 801.5
20260507054531 57 0.0 0.0 0.00 0.00 0.00 51 800.0
20260507053155 56 0.0 0.0 0.00 0.00 0.00 52 799.1
20260507051643 56 0.0 0.0 0.00 0.00 0.00 52 798.2
20260507050134 56 0.0 0.0 0.00 0.00 0.00 53 798.2
20260507044531 56 0.0 0.0 0.00 0.00 0.00 53 798.9
20260507043307 55 0.0 0.0 0.00 0.00 0.00 53 799.6
20260507041807 55 0.0 0.0 0.00 0.00 0.00 53 800.3
20260507040046 56 0.0 0.0 0.00 0.00 0.00 52 800.2
20260507034755 56 0.0 0.0 0.00 0.00 0.00 52 800.8
20260507033018 56 0.0 0.0 0.00 0.00 0.00 51 802.4
20260507031555 56 0.0 0.0 0.00 0.00 0.00 51 803.1
20260507030133 56 0.0 0.0 0.00 0.00 0.00 51 805.5
20260507024531 56 0.0 0.0 0.00 0.00 0.00 52 807.0
20260507023018 56 0.0 0.0 0.00 0.00 0.00 51 808.4
20260507021555 57 0.0 0.0 0.00 0.00 0.00 51 809.2
20260507020045 57 0.0 0.0 0.00 0.00 0.00 51 810.6
20260507014707 57 0.0 0.0 0.00 0.00 0.00 52 812.7
20260507013154 57 0.0 0.0 0.00 0.00 0.00 52 813.5
20260507011555 58 0.0 0.0 0.00 0.00 0.00 53 814.3
20260507010045 58 0.0 0.0 0.00 0.00 0.00 53 814.1
20260507004530 58 0.0 0.0 0.00 0.00 0.00 54 813.4
20260507003019 59 0.0 0.0 0.00 0.00 0.00 54 814.2
20260507001555 59 0.0 0.0 0.00 0.00 0.00 54 814.1
20260507000044 59 0.0 0.0 0.00 0.00 0.00 53 814.0
20260506234531 59 0.0 0.0 0.00 0.00 0.00 54 813.8
20260506233106 60 0.0 0.0 0.00 0.00 0.00 53 813.7
20260506231555 60 0.0 0.0 0.00 0.00 0.00 53 814.5
20260506230221 61 0.0 0.0 0.00 0.00 0.00 52 813.8
20260506224531 61 0.0 0.0 0.00 0.00 0.00 53 814.4
20260506223018 62 0.0 0.0 0.00 0.00 0.00 52 813.5
20260506221555 62 0.0 0.0 0.00 0.00 0.00 52 814.1
20260506220045 62 0.0 0.0 0.00 0.00 0.00 46 813.4
20260506214531 63 0.0 0.0 0.00 0.00 0.00 43 813.2
20260506213018 64 0.0 0.0 0.00 0.00 0.00 40 813.0
20260506211555 65 0.0 0.0 0.00 0.00 0.00 37 812.8
20260506210045 66 0.0 0.0 0.00 0.00 0.00 33 812.5
20260506204530 68 0.0 0.0 0.00 0.00 0.00 27 812.3
20260506203018 69 0.0 0.0 0.00 0.00 0.00 24 811.4
20260506201555 69 0.0 0.0 0.00 0.00 0.00 24 811.9
20260506200058 69 0.0 0.0 0.00 0.00 0.00 24 811.9
20260506194619 69 0.0 0.0 0.00 0.00 0.00 23 811.0
20260506193019 69 0.0 0.0 0.00 0.00 0.00 22 811.7
20260506191643 69 0.0 0.0 0.00 0.00 0.00 22 811.6
20260506190045 70 0.0 0.0 0.00 0.00 0.00 21 810.7
20260506184619 70 0.0 0.0 0.00 0.00 0.00 20 810.7
20260506183107 71 0.0 0.0 0.00 0.00 0.00 19 810.6
20260506181555 72 0.0 0.0 0.00 0.00 0.00 18 809.8
20260506180045 72 0.0 0.0 0.00 0.00 0.00 17 809.6
20260506174530 73 0.0 0.0 0.00 0.00 0.00 16 807.4
20260506173018 73 0.0 0.0 0.00 0.00 0.00 16 805.9
20260506171555 74 0.0 0.0 0.00 0.00 0.00 14 805.2
20260506170045 75 0.0 0.0 0.00 0.00 0.00 14 803.7
20260506164530 76 0.0 0.0 0.00 0.00 0.00 12 799.8
20260506163019 77 0.0 0.0 0.00 0.00 0.00 11 798.3
20260506161555 78 0.0 0.0 0.00 0.00 0.00 10 795.2
20260506160045 78 0.0 0.0 0.00 0.00 0.00 795.3
20260506154530 78 0.0 0.0 0.00 0.00 0.00 795.4
20260506153107 79 0.0 0.0 0.00 0.00 0.00 796.2
20260506151556 80 0.0 0.0 0.00 0.00 0.00 796.9
20260506150045 81 0.0 0.0 0.00 0.00 0.00 797.7
20260506144531 81 0.0 0.0 0.00 0.00 0.00 796.9
20260506143018 81 0.0 0.0 0.00 0.00 0.00 798.4
20260506141731 80 0.0 0.0 0.00 0.00 0.00 799.3
20260506140045 82 0.0 0.0 0.00 0.00 0.00 800.0
20260506134531 83 0.0 0.0 0.00 0.00 0.00 800.9
20260506133018 82 0.0 0.0 0.00 0.00 0.00 802.5
20260506131907 82 0.0 0.0 0.00 0.00 0.00 801.0
20260506130133 82 0.0 0.0 0.00 0.00 0.00 801.0
20260506124531 83 0.0 0.0 0.00 0.00 0.00 799.5
20260506123018 82 0.0 0.0 0.00 0.00 0.00 799.6
20260506121554 80 0.0 0.0 0.00 0.00 0.00 11 799.6
20260506120045 80 0.0 0.0 0.00 0.00 0.00 11 799.7
20260506114530 80 0.0 0.0 0.00 0.00 0.00 13 799.7
20260506113154 79 0.0 0.0 0.00 0.00 0.00 16 799.0
20260506111642 78 0.0 0.0 0.00 0.00 0.00 17 799.2
20260506110045 79 0.0 0.0 0.00 0.00 0.00 18 800.1
20260506104531 78 0.0 0.0 0.00 0.00 0.00 21 798.5
20260506103018 77 0.0 0.0 0.00 0.00 0.00 21 798.7
20260506101555 78 0.0 0.0 0.00 0.00 0.00 20 798.0
20260506100045 77 0.0 0.0 0.00 0.00 0.00 20 798.1
20260506094530 76 0.0 0.0 0.00 0.00 0.00 22 797.5
20260506093018 75 0.0 0.0 0.00 0.00 0.00 25 796.8
20260506091554 74 0.0 0.0 0.00 0.00 0.00 26 797.0
20260506090045 73 0.0 0.0 0.00 0.00 0.00 29 797.0
20260506084530 72 0.0 0.0 0.00 0.00 0.00 29 796.3
20260506083018 72 0.0 0.0 0.00 0.00 0.00 34 796.4
20260506081554 71 0.0 0.0 0.00 0.00 0.00 34 796.5
20260506073018 68 0.0 0.0 0.00 0.00 0.00 43 795.9
20260506071554 67 0.0 0.0 0.00 0.00 0.00 45 794.4
20260506061554 66 0.0 0.0 0.00 0.00 0.00 50 790.9